Showing default

QIANFAN-16, 60394

Orbit data source: Space-Track

QIANFAN-16, 60394 is a Chinese payload satellite in LEO that was launched on Tue, 06 Aug 2024 UTC via a CHANG ZHENG 6A launch vehicle from the Taiyaun Space Center, China (TSC). Payload-class satellites include a variety of spacecraft equipped with specific instruments for various scientific and technological missions. These include communications satellites like Starlink; space stations such as the ISS; scientific satellites like the Hubble; Earth observation satellites from companies like Planet Labs, Umbra, and HawkEye 360; GPS; miniature CubeSats for education and research; and military/defense satellites.

Loading next visibility...
Identifier
60394, 2024-140R
Orbit
LEO
Country
Flag of CNCN / PRC
Related business
Manufacturer
SECM
Mission
Operational Commercial Communications
Bus & Motor
QIANFAN, Unknown motor
Mass
267 kg wet, ~267 kg dry
Launch date (UTC)
2024-08-06 (1 year ago)
Launch vehicle
CHANG ZHENG 6A
Launch site
Taiyaun Space Center, China (TSC)
Object type
Payload
Rocket body
Debris
Shape & HBR
Box + 1 Pan, 5.0 m
Radar Cross Section
13.200 m², Large (>1 m²)

Expand to show TLE details & history
Last TLE update: 1 day ago

TLE from 1 day ago
0 QIANFAN-16
1 60394U 24140R   25312.81648247  .00000032  00000-0  31539-4 0  9996
2 60394  88.9730 302.9057 0013235 316.6403  43.3705 13.50972857 62593
Epoch: 2025-11-08T19:35Z
TLE epoch observation values (Epoch: 2025-11-08T19:35:44.085Z)
Latitude
-0.00011°
Longitude
-39.26865°
Altitude
1,064.475 km
Speed
7.323 km/s
True Right ascension
20h 11m 37s
True Declination
0° 00' 00"
Sunlit
Object was in daylight at epoch
Visualization orbit readout
Latitude
Unknown
Longitude
Unknown
Altitude
Unknown
Speed
Unknown
Apparent Right ascension
Unknown
Apparent Declination
Unknown
Sunlit
N/A
Visualization observer readout
Local Sidereal Time
18:58:42
Azimuth
Unknown
Elevation
Unknown
Doppler factor
Unknown
Orbital elements
Apogee altitude
1,075.585 km
Perigee altitude
1,055.881 km
Semi-major axis
7,443.87 km
Eccentricity
0.00132
Inclination
88.973°
RAAN
302.9057°
Arg. of periapsis
316.6403°
True anomaly
43.47477°
Mean anomaly
43.3705°
Eccentric anomaly
43.42262°
Mean motion
3.37944 °/min
Orbital period
106.53 mins
BSTAR
0.000031539
Loading maneuver chart data...
Computing Atmospheric mass density...
Loading historical data...
Loading historical data...
Loading historical data...
Loading historical data...
Loading historical data...
Loading historical data...
Loading historical data...

Documentation

Showing up to 5 results
|